EW7061 Weather Reports


time (UTC)temp
C
wind
direction
speed
KPH
gust
KPH
rain 1hr
cm
rain 24hr
cm
rain mn
cm
humidity
%
barometer
mb
20260508004503 11 0 0.0 0.0 0.00 0.64 0.58 80 1006.7
20260508003603 11 257 0.0 1.6 0.00 0.79 0.58 79 1006.3
20260508002917 11 0 0.0 0.0 0.00 0.84 0.58 79 1006.1
20260508001803 11 242 1.6 6.4 0.00 0.89 0.58 78 1006.2
20260508000903 12 220 0.0 1.6 0.00 0.94 0.58 78 1006.2
20260508000219 12 220 0.0 1.6 0.00 0.94 0.58 78 1006.1
20260507235616 12 220 0.0 3.2 0.00 0.97 0.58 78 1006.1
20260507234503 12 220 0.0 4.8 0.00 0.99 0.58 77 1006.2
20260507233603 12 220 1.6 4.8 0.00 1.02 0.58 76 1006.1
20260507232703 13 220 3.2 6.4 0.00 1.04 0.58 74 1006.2
20260507231803 13 235 4.8 12.9 0.00 1.09 0.58 72 1006.1
20260507230903 13 238 4.8 14.5 0.00 1.17 0.58 70 1006.0
20260507230216 13 220 4.8 14.5 0.00 1.19 0.58 70 1006.1
20260507225618 13 215 4.8 9.7 0.00 1.19 0.58 69 1005.9
20260507224503 13 224 4.8 14.5 0.00 1.22 0.58 68 1005.9
20260507223603 13 220 4.8 14.5 0.00 1.22 0.58 69 1005.7
20260507222918 13 230 6.4 19.3 0.00 1.22 0.58 71 1005.6
20260507221803 14 214 8.0 17.7 0.00 1.22 0.58 69 1005.8
20260507220903 15 209 6.4 20.9 0.00 1.22 0.58 67 1005.8
20260507220218 15 218 8.0 19.3 0.00 1.22 0.58 69 1005.9
20260507215617 15 224 8.0 19.3 0.00 1.22 0.58 68 1005.9
20260507214932 15 204 6.4 16.1 0.00 1.22 0.58 70 1005.9
20260507213816 14 226 6.4 14.5 0.00 1.22 0.58 73 1005.8
20260507212703 13 229 6.4 11.3 0.00 1.22 0.58 79 1005.9
20260507211803 13 228 4.8 12.9 0.00 1.22 0.58 81 1005.7
20260507210903 13 234 4.8 12.9 0.00 1.22 0.58 82 1005.6
20260507210218 13 222 4.8 11.3 0.00 1.22 0.58 82 1005.7
20260507205617 13 233 4.8 11.3 0.00 1.22 0.58 81 1005.7
20260507204503 14 197 6.4 12.9 0.00 1.22 0.58 80 1005.8
20260507203818 14 199 6.4 14.5 0.00 1.22 0.58 78 1005.6
20260507202703 16 194 4.8 11.3 0.00 1.22 0.58 76 1005.8
20260507201803 16 175 6.4 12.9 0.00 1.22 0.58 76 1005.5
20260507200903 16 175 6.4 14.5 0.00 1.22 0.58 76 1005.6
20260507200003 15 207 8.0 17.7 0.00 1.22 0.58 79 1005.8
20260507195832 15 212 6.4 17.7 0.00 1.22 0.58 78 1005.7
20260507194503 15 195 8.0 16.1 0.00 1.22 0.58 76 1005.9
20260507193603 15 216 9.7 16.1 0.00 1.22 0.58 77 1006.0
20260507192703 15 212 8.0 14.5 0.00 1.22 0.58 78 1006.2
20260507191803 16 196 4.8 16.1 0.00 1.22 0.58 77 1006.2
20260507190903 16 197 4.8 17.7 0.00 1.22 0.58 77 1006.3
20260507190217 15 205 6.4 14.5 0.00 1.22 0.58 78 1006.5
20260507185403 15 208 6.4 17.7 0.00 1.22 0.58 76 1006.7
20260507184718 15 211 8.0 17.7 0.00 1.22 0.58 76 1006.6
20260507184032 15 217 8.0 17.7 0.00 1.22 0.58 76 1006.8
20260507182703 16 208 6.4 17.7 0.00 1.22 0.58 74 1006.8
20260507182018 16 210 6.4 14.5 0.00 1.22 0.58 72 1006.8
20260507180903 15 211 6.4 14.5 0.00 1.22 0.58 75 1006.9
20260507180216 15 198 6.4 16.1 0.00 1.22 0.58 74 1007.0
20260507175618 15 203 8.0 17.7 0.00 1.22 0.58 74 1007.1
20260507174503 15 215 6.4 17.7 0.00 1.22 0.58 73 1007.1
20260507173817 16 196 6.4 14.5 0.00 1.22 0.58 70 1007.2
20260507172918 17 281 4.8 17.7 0.00 1.22 0.58 61 1007.1
20260507171803 17 312 4.8 14.5 0.00 1.22 0.58 59 1007.0
20260507170903 17 341 6.4 16.1 0.00 1.22 0.58 57 1007.0
20260507170003 16 305 6.4 19.3 0.00 1.22 0.58 59 1007.3
20260507165403 16 290 6.4 16.1 0.00 1.22 0.58 61 1007.4
20260507164503 16 298 6.4 16.1 0.00 1.22 0.58 61 1007.4
20260507163816 16 316 4.8 14.5 0.00 1.22 0.58 65 1007.4
20260507162703 15 295 6.4 16.1 0.00 1.22 0.58 69 1007.4
20260507161803 15 312 6.4 17.7 0.00 1.22 0.58 71 1007.6
20260507160903 15 319 4.8 17.7 0.00 1.22 0.58 72 1007.5
20260507160003 15 315 4.8 16.1 0.00 1.22 0.58 76 1007.7
20260507155403 15 294 4.8 16.1 0.00 1.22 0.58 79 1007.8
20260507154716 14 318 4.8 14.5 0.03 1.22 0.58 78 1007.7
20260507153603 13 339 6.4 17.7 0.03 1.22 0.58 83 1007.9
20260507152703 12 305 4.8 11.3 0.03 1.22 0.58 85 1008.0
20260507151803 12 318 4.8 16.1 0.03 1.22 0.58 87 1008.0
20260507150903 11 312 6.4 14.5 0.03 1.22 0.58 88 1007.8
20260507150003 11 335 6.4 16.1 0.03 1.22 0.58 90 1007.8
20260507145403 11 335 3.2 16.1 0.03 1.22 0.58 90 1007.7
20260507144716 11 328 4.8 16.1 0.00 1.19 0.56 91 1008.1
20260507143603 10 350 4.8 16.1 0.00 1.19 0.56 91 1008.0
20260507142703 10 317 3.2 11.3 0.00 1.19 0.56 92 1008.1
20260507141803 10 284 3.2 6.4 0.00 1.19 0.56 92 1008.2
20260507141118 10 332 4.8 14.5 0.00 1.19 0.56 92 1008.1
20260507140003 10 333 6.4 16.1 0.00 1.19 0.56 92 1008.2
20260507135403 9 338 4.8 12.9 0.00 1.19 0.56 92 1008.0
20260507134503 9 334 3.2 12.9 0.03 1.19 0.56 92 1007.9
20260507133603 9 338 4.8 12.9 0.03 1.19 0.56 92 1007.5
20260507132703 9 340 3.2 11.3 0.03 1.19 0.56 92 1007.7
20260507132018 9 345 3.2 11.3 0.03 1.19 0.56 92 1007.8
20260507130903 9 317 4.8 16.1 0.03 1.19 0.56 92 1008.0
20260507130216 9 316 4.8 12.9 0.03 1.19 0.56 92 1008.1
20260507125403 9 340 4.8 14.5 0.05 1.19 0.56 92 1008.0
20260507124503 10 314 4.8 14.5 0.03 1.17 0.53 92 1008.2
20260507123817 9 337 4.8 14.5 0.03 1.17 0.53 92 1007.9
20260507122703 10 325 4.8 16.1 0.03 1.17 0.53 92 1007.9
20260507121803 10 321 4.8 19.3 0.03 1.17 0.53 92 1008.0
20260507121332 10 332 4.8 12.9 0.05 1.17 0.53 92 1007.9
20260507120004 10 330 4.8 12.9 0.08 1.17 0.53 92 1007.7
20260507115403 10 322 4.8 12.9 0.05 1.14 0.51 92 1008.0
20260507114503 10 312 4.8 12.9 0.05 1.14 0.51 92 1008.2
20260507113603 10 328 6.4 16.1 0.05 1.14 0.51 92 1007.9
20260507112918 10 335 6.4 20.9 0.05 1.14 0.51 92 1007.3
20260507112017 10 351 4.8 17.7 0.08 1.14 0.51 92 1007.4
20260507110903 10 338 6.4 16.1 0.05 1.12 0.48 92 1007.2
20260507110003 10 338 6.4 16.1 0.13 1.09 0.46 92 1007.6
20260507105617 10 341 6.4 17.7 0.18 1.09 0.46 92 1007.3
20260507104504 10 349 8.0 24.1 0.25 1.09 0.46 92 1007.0
20260507103603 10 352 6.4 17.7 0.41 1.09 0.46 92 1007.0
20260507102703 10 347 6.4 14.5 0.43 1.09 0.46 92 1006.7
20260507102017 10 345 8.0 17.7 0.41 1.07 0.43 92 1006.8
20260507100903 10 348 6.4 17.7 0.41 1.07 0.43 92 1006.8
20260507100217 10 348 8.0 16.1 0.33 0.99 0.36 92 1006.4
20260507095617 11 340 6.4 16.1 0.28 0.91 0.28 92 1006.8
20260507094716 12 334 8.0 20.9 0.23 0.86 0.23 92 1006.2
20260507094033 12 328 6.4 20.9 0.13 0.76 0.13 92 1006.5
20260507092703 12 306 1.6 6.4 0.03 0.66 0.03 92 1006.1
20260507091803 12 274 1.6 11.3 0.03 0.66 0.03 92 1006.1
20260507090903 12 279 3.2 11.3 0.03 0.66 0.03 92 1006.5
20260507090217 12 275 4.8 14.5 0.03 0.66 0.03 92 1006.5
20260507085403 12 281 6.4 17.7 0.00 0.64 0.00 92 1006.9
20260507084718 12 262 4.8 14.5 0.00 0.64 0.00 92 1006.4
20260507083817 12 238 4.8 12.9 0.00 0.64 0.00 92 1006.2
20260507082917 12 236 4.8 12.9 0.00 0.64 0.00 92 1006.0
20260507082018 12 236 4.8 12.9 0.00 0.64 0.00 92 1005.8
20260507080903 12 226 4.8 20.9 0.00 0.64 0.00 92 1006.0
20260507080217 12 241 4.8 9.7 0.00 0.64 0.00 92 1006.0
20260507075403 12 235 3.2 11.3 0.00 0.64 0.00 92 1006.1
20260507074503 12 231 6.4 16.1 0.00 0.64 0.00 92 1005.9
20260507073817 12 237 4.8 16.1 0.00 0.64 0.00 92 1006.2
20260507072703 12 217 4.8 12.9 0.00 0.64 0.00 92 1006.2
20260507072018 12 232 6.4 12.9 0.00 0.64 0.00 92 1006.2
20260507071117 12 235 6.4 16.1 0.00 0.64 0.00 92 1006.6
20260507070004 12 236 6.4 16.1 0.00 0.64 0.00 92 1006.4
20260507065618 12 237 6.4 16.1 0.00 0.64 0.00 92 1006.3
20260507064717 12 242 6.4 14.5 0.00 0.64 0.00 92 1006.2
20260507063603 12 223 6.4 12.9 0.00 0.64 0.00 92 1006.6
20260507062918 12 230 4.8 12.9 0.00 0.64 0.00 92 1006.6
20260507061803 13 232 4.8 12.9 0.00 0.64 0.00 92 1006.6
20260507060903 13 236 4.8 14.5 0.00 0.64 0.00 92 1006.7
20260507060003 13 235 4.8 12.9 0.00 0.64 0.00 92 1006.6
20260507055403 13 226 6.4 14.5 0.00 0.64 0.00 92 1006.7
20260507054717 13 225 6.4 16.1 0.00 0.64 0.00 92 1007.0
20260507053603 13 226 6.4 19.3 0.00 0.64 0.00 92 1007.1
20260507053133 13 227 8.0 19.3 0.00 0.64 0.00 92 1007.2
20260507051803 13 232 8.0 20.9 0.00 0.64 0.00 92 1007.5
20260507050903 13 228 6.4 16.1 0.00 0.64 0.00 92 1007.5
20260507050003 13 236 9.7 25.7 0.00 0.64 0.00 92 1007.4
20260507045832 13 237 9.7 25.7 0.00 0.64 0.00 92 1007.5
20260507044503 13 220 9.7 20.9 0.00 0.64 0.00 92 1007.4
20260507043603 13 225 8.0 27.4 0.00 0.64 0.00 92 1007.4
20260507042703 13 221 8.0 24.1 0.00 0.64 0.00 92 1007.6
20260507041803 13 220 9.7 27.4 0.00 0.64 0.00 92 1007.8
20260507040903 13 230 8.0 17.7 0.00 0.64 0.00 92 1007.7
20260507040003 13 220 9.7 22.5 0.00 0.64 0.00 92 1007.6
20260507035403 13 219 9.7 22.5 0.00 0.64 0.64 92 1007.7
20260507034503 13 221 9.7 24.1 0.00 0.64 0.64 92 1008.0
20260507033603 13 223 9.7 24.1 0.00 0.64 0.64 92 1008.0
20260507033132 13 232 9.7 24.1 0.00 0.64 0.64 92 1008.0
20260507031803 13 219 9.7 22.5 0.00 0.64 0.64 92 1007.7
20260507031117 13 221 9.7 24.1 0.00 0.64 0.64 92 1007.6
20260507030217 13 221 9.7 20.9 0.00 0.64 0.64 92 1007.5
20260507025403 13 222 11.3 22.5 0.00 0.64 0.64 92 1007.7
20260507024503 13 217 11.3 22.5 0.00 0.64 0.64 92 1008.1
20260507023603 13 222 9.7 22.5 0.00 0.64 0.64 92 1008.3
20260507022703 13 218 11.3 25.7 0.00 0.64 0.64 92 1008.5
20260507021803 13 217 12.9 29.0 0.00 0.64 0.64 92 1008.5
20260507021117 13 226 12.9 25.7 0.00 0.64 0.64 92 1008.4
20260507020216 13 226 11.3 25.7 0.03 0.64 0.64 92 1008.4
20260507015403 13 219 12.9 25.7 0.03 0.64 0.64 92 1008.6
20260507014503 13 211 9.7 22.5 0.05 0.64 0.64 92 1008.8
20260507014032 13 211 9.7 19.3 0.10 0.64 0.64 92 1008.8
20260507012918 13 213 11.3 27.4 0.25 0.64 0.64 92 1008.6
20260507011803 13 220 9.7 24.1 0.30 0.64 0.64 92 1008.8
20260507010903 13 222 11.3 30.6 0.33 0.61 0.61 92 1008.8
20260507010003 13 213 12.9 35.4 0.33 0.61 0.61 92 1008.9